UAE28C OMDB-HECA

Flight info

Callsign UAE28C
Flight time 1h 55m
Altitude 34000
Route SENPA N571 ALPOB L768 VATIM L550 RASMO/N0493F360 L550 NOVPA N697 MENLI L677 CVO
Aircraft B77W/H-SDE1E2E3FGHIJ2J3J4J5M1RWXY/LB1D1

Departure

Time 2026-05-04 14:54
Airport Dubai International Airport (OMDB)

Arrival

Time 2026-05-04 16:50
Airport Cairo International Airport (HECA)
Time Latitude Longitude Altitude Speed Heading
2026-05-04 14:20 25.25090 55.35555 32 ft 0 kts 32°
2026-05-04 14:32 25.25089 55.35555 26 ft 1 kts 32°
2026-05-04 14:32 25.25077 55.35547 32 ft 3 kts 28°
2026-05-04 14:32 25.25059 55.35537 29 ft 3 kts 19°
2026-05-04 14:32 25.25041 55.35532 32 ft 3 kts
2026-05-04 14:33 25.25023 55.35532 31 ft 3 kts 344°
2026-05-04 14:33 25.25009 55.35537 32 ft 2 kts 316°
2026-05-04 14:33 25.25003 55.35545 32 ft 0 kts 302°
2026-05-04 14:37 25.25003 55.35544 32 ft 0 kts 302°
2026-05-04 14:37 25.25011 55.35530 28 ft 3 kts 302°
2026-05-04 14:37 25.25024 55.35507 26 ft 4 kts 302°
2026-05-04 14:38 25.25042 55.35476 31 ft 6 kts 302°
2026-05-04 14:38 25.25069 55.35426 29 ft 9 kts 302°
2026-05-04 14:38 25.25109 55.35356 28 ft 12 kts 302°
2026-05-04 14:38 25.25157 55.35276 29 ft 12 kts 307°
2026-05-04 14:39 25.25204 55.35208 29 ft 11 kts 307°
2026-05-04 14:39 25.25245 55.35140 29 ft 11 kts 302°
2026-05-04 14:39 25.25285 55.35070 29 ft 11 kts 301°
2026-05-04 14:40 25.25364 55.34932 31 ft 11 kts 309°
2026-05-04 14:40 25.25429 55.34895 32 ft 11 kts 353°
2026-05-04 14:40 25.25497 55.34914 29 ft 10 kts 28°
2026-05-04 14:40 25.25557 55.34954 29 ft 10 kts 31°
2026-05-04 14:41 25.25601 55.34983 30 ft 5 kts 31°
2026-05-04 14:41 25.25625 55.34999 29 ft 3 kts 31°
2026-05-04 14:41 25.25627 55.35001 29 ft 0 kts 31°
2026-05-04 14:43 25.25638 55.35008 29 ft 3 kts 31°
2026-05-04 14:43 25.25659 55.35022 30 ft 4 kts 31°
2026-05-04 14:43 25.25690 55.35042 30 ft 7 kts 31°
2026-05-04 14:43 25.25738 55.35080 31 ft 8 kts 47°
2026-05-04 14:44 25.25747 55.35145 27 ft 10 kts 90°
2026-05-04 14:44 25.25779 55.35213 29 ft 11 kts 38°
2026-05-04 14:44 25.25841 55.35258 30 ft 11 kts 32°
2026-05-04 14:44 25.25903 55.35300 26 ft 10 kts 31°
2026-05-04 14:45 25.25966 55.35341 27 ft 10 kts 31°
2026-05-04 14:45 25.25985 55.35359 27 ft 0 kts 48°
2026-05-04 14:45 25.25988 55.35363 27 ft 3 kts 50°
2026-05-04 14:46 25.26010 55.35420 27 ft 11 kts 76°
2026-05-04 14:46 25.26009 55.35500 28 ft 11 kts 104°
2026-05-04 14:46 25.25977 55.35575 28 ft 11 kts 121°
2026-05-04 14:46 25.25938 55.35645 28 ft 11 kts 121°
2026-05-04 14:47 25.25896 55.35722 28 ft 12 kts 121°
2026-05-04 14:47 25.25851 55.35802 28 ft 12 kts 122°
2026-05-04 14:47 25.25806 55.35881 28 ft 12 kts 122°
2026-05-04 14:47 25.25755 55.35971 28 ft 15 kts 122°
2026-05-04 14:48 25.25693 55.36082 28 ft 18 kts 121°
2026-05-04 14:48 25.25623 55.36207 29 ft 19 kts 122°
2026-05-04 14:48 25.25552 55.36332 28 ft 19 kts 122°
2026-05-04 14:48 25.25483 55.36455 29 ft 19 kts 122°
2026-05-04 14:49 25.25412 55.36582 29 ft 19 kts 121°
2026-05-04 14:49 25.25343 55.36706 28 ft 19 kts 121°
2026-05-04 14:49 25.25273 55.36831 29 ft 19 kts 121°
2026-05-04 14:49 25.25203 55.36956 29 ft 19 kts 122°
2026-05-04 14:50 25.25132 55.37081 30 ft 19 kts 122°
2026-05-04 14:50 25.25061 55.37205 30 ft 19 kts 122°
2026-05-04 14:50 25.24991 55.37330 30 ft 19 kts 122°
2026-05-04 14:50 25.24921 55.37456 30 ft 19 kts 122°
2026-05-04 14:51 25.24850 55.37581 30 ft 19 kts 122°
2026-05-04 14:51 25.24780 55.37706 30 ft 19 kts 122°
2026-05-04 14:51 25.24720 55.37813 29 ft 12 kts 122°
2026-05-04 14:51 25.24678 55.37889 29 ft 11 kts 116°
2026-05-04 14:52 25.24691 55.37961 30 ft 9 kts 46°
2026-05-04 14:52 25.24744 55.38003 33 ft 9 kts 33°
2026-05-04 14:52 25.24802 55.38022 34 ft 8 kts 348°
2026-05-04 14:52 25.24825 55.37998 34 ft 0 kts 302°
2026-05-04 14:53 25.24837 55.37976 34 ft 19 kts 302°
2026-05-04 14:53 25.25064 55.37564 36 ft 107 kts 301°
2026-05-04 14:54 25.25595 55.36602 38 ft 184 kts 301°
2026-05-04 14:54 25.26288 55.35335 783 ft 191 kts 298°
2026-05-04 14:54 25.26955 55.34051 1603 ft 194 kts 298°
2026-05-04 14:54 25.27609 55.32714 2192 ft 205 kts 297°
2026-05-04 14:55 25.28331 55.31269 2460 ft 226 kts 303°
2026-05-04 14:55 25.29215 55.29756 2785 ft 245 kts 303°
2026-05-04 14:55 25.29912 55.28027 3322 ft 255 kts 280°
2026-05-04 14:55 25.29987 55.26053 3755 ft 261 kts 272°
2026-05-04 14:56 25.30024 55.24048 3989 ft 264 kts 274°
2026-05-04 14:56 25.30141 55.21971 3992 ft 273 kts 275°
2026-05-04 14:56 25.30257 55.19868 4213 ft 274 kts 275°
2026-05-04 14:56 25.30357 55.17753 4959 ft 277 kts 275°
2026-05-04 14:57 25.30460 55.15618 5782 ft 279 kts 276°
2026-05-04 14:57 25.30562 55.13474 6560 ft 281 kts 276°
2026-05-04 14:57 25.30664 55.11305 7325 ft 282 kts 276°
2026-05-04 14:57 25.30771 55.09134 8098 ft 284 kts 276°
2026-05-04 14:58 25.30880 55.06936 8880 ft 286 kts 277°
2026-05-04 14:58 25.30989 55.04739 9652 ft 288 kts 277°
2026-05-04 14:58 25.31097 55.02515 10325 ft 292 kts 276°
2026-05-04 14:58 25.31204 55.00259 11032 ft 296 kts 276°
2026-05-04 14:59 25.31309 54.97973 11830 ft 299 kts 276°
2026-05-04 14:59 25.31413 54.95701 12662 ft 302 kts 276°
2026-05-04 14:59 25.31627 54.91011 14223 ft 308 kts 275°
2026-05-04 15:00 25.31737 54.88615 14685 ft 321 kts 275°
2026-05-04 15:00 25.31855 54.86035 14739 ft 351 kts 275°
2026-05-04 15:00 25.31977 54.83224 14757 ft 380 kts 274°
2026-05-04 15:01 25.32233 54.77156 14740 ft 400 kts 274°
2026-05-04 15:01 25.32368 54.74090 14735 ft 400 kts 274°
2026-05-04 15:01 25.32510 54.71014 14728 ft 401 kts 274°
2026-05-04 15:01 25.32654 54.67915 15299 ft 404 kts 274°
2026-05-04 15:02 25.32796 54.64860 16162 ft 404 kts 274°
2026-05-04 15:02 25.32943 54.61756 17017 ft 405 kts 274°
2026-05-04 15:02 25.33091 54.58626 17777 ft 409 kts 274°
2026-05-04 15:02 25.33259 54.55481 18361 ft 408 kts 276°
2026-05-04 15:03 25.33648 54.52367 18594 ft 411 kts 282°
2026-05-04 15:03 25.34393 54.49287 18838 ft 419 kts 288°
2026-05-04 15:03 25.35330 54.46236 19554 ft 420 kts 289°
2026-05-04 15:03 25.36282 54.43183 20291 ft 421 kts 288°
2026-05-04 15:04 25.37184 54.40092 20950 ft 424 kts 287°
2026-05-04 15:04 25.38014 54.36939 21571 ft 429 kts 285°
2026-05-04 15:04 25.38779 54.33747 22177 ft 432 kts 284°
2026-05-04 15:04 25.39562 54.30521 22786 ft 436 kts 285°
2026-05-04 15:05 25.40397 54.27283 23382 ft 440 kts 285°
2026-05-04 15:05 25.41220 54.24070 23742 ft 441 kts 285°
2026-05-04 15:05 25.42039 54.20767 23731 ft 443 kts 284°
2026-05-04 15:05 25.42840 54.17480 23738 ft 442 kts 284°
2026-05-04 15:06 25.43641 54.14197 23741 ft 441 kts 284°
2026-05-04 15:06 25.44448 54.10913 23754 ft 443 kts 284°
2026-05-04 15:06 25.45261 54.07605 24166 ft 447 kts 284°
2026-05-04 15:07 25.46878 54.00980 25381 ft 446 kts 284°
2026-05-04 15:07 25.47684 53.97668 25921 ft 447 kts 284°
2026-05-04 15:07 25.48494 53.94332 26393 ft 450 kts 284°
2026-05-04 15:07 25.49298 53.91017 26848 ft 453 kts 284°
2026-05-04 15:08 25.50115 53.87646 27324 ft 455 kts 284°
2026-05-04 15:08 25.50938 53.84255 27788 ft 457 kts 284°
2026-05-04 15:08 25.51766 53.80858 28257 ft 458 kts 284°
2026-05-04 15:08 25.52597 53.77440 28674 ft 460 kts 284°
2026-05-04 15:09 25.53426 53.74004 29065 ft 462 kts 284°
2026-05-04 15:09 25.53971 53.71721 29311 ft 463 kts 283°
2026-05-04 15:09 25.54792 53.68256 29665 ft 465 kts 283°
2026-05-04 15:10 25.56430 53.61297 30322 ft 466 kts 283°
2026-05-04 15:10 25.57247 53.57827 30775 ft 464 kts 283°
2026-05-04 15:10 25.58870 53.50937 31650 ft 460 kts 283°
2026-05-04 15:11 25.59676 53.47513 32054 ft 459 kts 283°
2026-05-04 15:11 25.60477 53.44104 32470 ft 457 kts 283°
2026-05-04 15:11 25.61276 53.40706 32885 ft 456 kts 283°
2026-05-04 15:11 25.62079 53.37303 33300 ft 455 kts 283°
2026-05-04 15:12 25.62881 53.33923 33696 ft 453 kts 283°
2026-05-04 15:12 25.63685 53.30538 34038 ft 452 kts 283°
2026-05-04 15:12 25.64484 53.27165 34367 ft 451 kts 283°
2026-05-04 15:12 25.65268 53.23847 34707 ft 450 kts 283°
2026-05-04 15:13 25.66058 53.20492 35036 ft 449 kts 283°
2026-05-04 15:13 25.66841 53.17155 35359 ft 447 kts 283°
2026-05-04 15:13 25.67622 53.13819 35642 ft 447 kts 283°
2026-05-04 15:14 25.69198 53.07083 35734 ft 451 kts 282°
2026-05-04 15:14 25.70987 53.00444 35741 ft 448 kts 288°
2026-05-04 15:15 25.73592 52.94178 35748 ft 449 kts 295°
2026-05-04 15:15 25.76692 52.88152 35750 ft 450 kts 296°
2026-05-04 15:16 25.81171 52.79012 35747 ft 450 kts 294°
2026-05-04 15:17 25.85481 52.69795 35748 ft 451 kts 294°
2026-05-04 15:17 25.89846 52.60506 35747 ft 452 kts 294°
2026-05-04 15:18 25.92658 52.54274 35747 ft 451 kts 292°
2026-05-04 15:19 25.96655 52.44833 35740 ft 449 kts 290°
2026-05-04 15:19 26.00856 52.35542 35760 ft 448 kts 292°
2026-05-04 15:20 26.03652 52.29346 35761 ft 449 kts 292°
2026-05-04 15:20 26.06432 52.23114 35762 ft 449 kts 292°
2026-05-04 15:21 26.09186 52.16919 35746 ft 450 kts 292°
2026-05-04 15:22 26.13361 52.07514 35752 ft 450 kts 292°
2026-05-04 15:22 26.17509 51.98149 35752 ft 450 kts 292°
2026-05-04 15:23 26.20321 51.91924 35754 ft 450 kts 292°
2026-05-04 15:23 26.23071 51.85727 35754 ft 449 kts 292°
2026-05-04 15:24 26.28607 51.73254 35757 ft 449 kts 292°
2026-05-04 15:25 26.31394 51.67017 35755 ft 448 kts 292°
2026-05-04 15:26 26.35550 51.57670 35757 ft 448 kts 292°
2026-05-04 15:26 26.39428 51.48220 35758 ft 445 kts 287°
2026-05-04 15:27 26.42311 51.38419 35763 ft 443 kts 285°
2026-05-04 15:28 26.45459 51.28741 35766 ft 445 kts 286°
2026-05-04 15:29 26.48609 51.18996 35766 ft 445 kts 285°
2026-05-04 15:30 26.55821 50.96188 35774 ft 444 kts 285°
2026-05-04 15:31 26.58877 50.86428 35773 ft 443 kts 284°
2026-05-04 15:32 26.63826 50.70226 35775 ft 441 kts 284°
2026-05-04 15:34 26.68673 50.53983 35778 ft 440 kts 284°
2026-05-04 15:34 26.71484 50.44238 35777 ft 437 kts 282°
2026-05-04 15:35 26.73957 50.34427 35776 ft 437 kts 282°
2026-05-04 15:36 26.76523 50.24640 35778 ft 438 kts 283°
2026-05-04 15:36 26.78455 50.18157 40694 ft 437 kts 278°
2026-05-04 15:37 26.78954 50.16157 40372 ft 436 kts 283°
2026-05-04 15:37 26.79915 50.12963 40195 ft 432 kts 284°
2026-05-04 15:37 26.80940 50.09807 40064 ft 429 kts 285°
2026-05-04 15:37 26.81923 50.06730 39736 ft 424 kts 284°
2026-05-04 15:38 26.82872 50.03610 39288 ft 423 kts 283°
2026-05-04 15:38 26.83798 50.00493 38884 ft 420 kts 283°
2026-05-04 15:38 26.84719 49.97388 38489 ft 419 kts 284°
2026-05-04 15:38 26.85638 49.94291 37986 ft 418 kts 283°
2026-05-04 15:39 26.86554 49.91192 37437 ft 419 kts 283°
2026-05-04 15:39 26.87470 49.88080 36855 ft 421 kts 283°
2026-05-04 15:39 26.89314 49.81798 35967 ft 428 kts 283°
2026-05-04 15:40 26.90252 49.78597 35822 ft 436 kts 284°
2026-05-04 15:40 26.92149 49.72133 35771 ft 441 kts 284°
2026-05-04 15:41 26.94067 49.65610 35755 ft 439 kts 284°
2026-05-04 15:41 26.95969 49.59125 35756 ft 436 kts 283°
2026-05-04 15:42 26.97859 49.52658 35759 ft 436 kts 283°
2026-05-04 15:42 26.99734 49.46235 35763 ft 436 kts 283°
2026-05-04 15:43 27.01804 49.39820 35766 ft 440 kts 288°
2026-05-04 15:43 27.04579 49.33636 35773 ft 446 kts 294°
2026-05-04 15:44 27.07768 49.27691 35770 ft 449 kts 296°
2026-05-04 15:44 27.10994 49.21689 35776 ft 448 kts 294°
2026-05-04 15:45 27.14083 49.15602 35773 ft 448 kts 293°
2026-05-04 15:45 27.17118 49.09491 35778 ft 448 kts 293°
2026-05-04 15:46 27.20162 49.03382 35765 ft 448 kts 293°
2026-05-04 15:46 27.23214 48.97275 35767 ft 447 kts 293°
2026-05-04 15:47 27.26258 48.91194 35786 ft 446 kts 293°
2026-05-04 15:47 27.29300 48.85107 35771 ft 446 kts 293°
2026-05-04 15:48 27.32312 48.79067 35775 ft 445 kts 293°
2026-05-04 15:48 27.36841 48.69967 35783 ft 444 kts 293°
2026-05-04 15:49 27.39856 48.63898 35786 ft 444 kts 293°
2026-05-04 15:49 27.42868 48.57825 35793 ft 444 kts 293°
2026-05-04 15:50 27.45879 48.51747 35789 ft 444 kts 293°
2026-05-04 15:50 27.48887 48.45667 35796 ft 445 kts 293°
2026-05-04 15:51 27.51897 48.39572 35792 ft 445 kts 293°
2026-05-04 15:51 27.54890 48.33504 35794 ft 446 kts 292°
2026-05-04 15:52 27.57915 48.27364 35795 ft 447 kts 292°
2026-05-04 15:52 27.60930 48.21222 35791 ft 448 kts 292°
2026-05-04 15:53 27.63943 48.15068 35791 ft 448 kts 292°
2026-05-04 15:53 27.66940 48.08939 35801 ft 449 kts 292°
2026-05-04 15:54 27.69958 48.02762 35799 ft 449 kts 292°
2026-05-04 15:54 27.72973 47.96587 35797 ft 449 kts 292°
2026-05-04 15:55 27.75481 47.91446 35795 ft 449 kts 292°
2026-05-04 15:55 27.78490 47.85265 35798 ft 449 kts 292°
2026-05-04 15:56 27.81493 47.79088 35803 ft 448 kts 292°
2026-05-04 15:56 27.84428 47.72885 35803 ft 444 kts 289°
2026-05-04 15:57 27.86725 47.66489 35808 ft 435 kts 282°
2026-05-04 15:57 27.88568 47.60043 35803 ft 433 kts 281°
2026-05-04 15:58 27.90444 47.53533 35794 ft 433 kts 282°
2026-05-04 15:58 27.92391 47.47102 35801 ft 432 kts 283°
2026-05-04 15:59 27.94355 47.40741 35798 ft 430 kts 283°
2026-05-04 15:59 27.96326 47.34356 35795 ft 429 kts 283°
2026-05-04 16:00 27.98284 47.27980 35793 ft 428 kts 282°
2026-05-04 16:00 28.00232 47.21615 35795 ft 427 kts 282°
2026-05-04 16:01 28.02161 47.15302 35798 ft 427 kts 282°
2026-05-04 16:01 28.04096 47.08955 35799 ft 427 kts 282°
2026-05-04 16:02 28.06032 47.02597 35796 ft 427 kts 282°
2026-05-04 16:03 28.08930 46.93054 35803 ft 427 kts 282°
2026-05-04 16:03 28.10868 46.86691 35793 ft 428 kts 283°
2026-05-04 16:04 28.12952 46.80368 35797 ft 429 kts 284°
2026-05-04 16:04 28.16164 46.70898 35794 ft 429 kts 284°
2026-05-04 16:05 28.18264 46.64616 35800 ft 429 kts 283°
2026-05-04 16:06 28.21412 46.55119 35801 ft 429 kts 283°
2026-05-04 16:07 28.25595 46.42462 35803 ft 428 kts 283°
2026-05-04 16:08 28.29744 46.29867 35805 ft 427 kts 283°
2026-05-04 16:09 28.34923 46.14081 35806 ft 427 kts 283°
2026-05-04 16:10 28.39400 46.01555 35812 ft 430 kts 285°
2026-05-04 16:11 28.44123 45.89084 35809 ft 429 kts 284°
2026-05-04 16:12 28.71222 43.68991 35999 ft 32000 kts 277°
2026-05-04 16:12 29.05359 40.82117 36020 ft 408 kts 274°
2026-05-04 16:13 29.05483 40.75700 35910 ft 407 kts 262°
2026-05-04 16:13 29.05238 40.69259 35906 ft 406 kts 266°
2026-05-04 16:14 29.05529 40.62690 35921 ft 421 kts 269°
2026-05-04 16:14 29.05901 40.56065 35898 ft 415 kts 268°
2026-05-04 16:16 28.97466 37.37734 36053 ft 32000 kts 268°
2026-05-04 16:16 28.96299 36.77478 35983 ft 405 kts 276°
2026-05-04 16:17 28.97642 36.71105 35990 ft 418 kts 278°
2026-05-04 16:18 29.00064 36.58110 35971 ft 415 kts 274°
2026-05-04 16:19 29.02453 36.42172 35307 ft 399 kts 275°
2026-05-04 16:20 29.04013 36.32715 33539 ft 409 kts 276°
2026-05-04 16:20 29.05078 36.26339 32368 ft 413 kts 276°
2026-05-04 16:21 29.06712 36.16537 31121 ft 426 kts 276°
2026-05-04 16:22 29.07827 36.09838 31002 ft 429 kts 276°
2026-05-04 16:22 29.10854 36.00259 30206 ft 439 kts 294°
2026-05-04 16:23 29.15815 35.91488 29378 ft 435 kts 297°
2026-05-04 16:24 29.22445 35.80102 28290 ft 420 kts 297°
2026-05-04 16:25 29.25668 35.74508 27804 ft 426 kts 297°
2026-05-04 16:26 29.32070 35.63342 25395 ft 408 kts 297°
2026-05-04 16:26 30.07119 33.94972 24374 ft 395 kts 295°
2026-05-04 16:27 30.10060 33.89740 23157 ft 379 kts 297°
2026-05-04 16:28 30.14345 33.82189 19895 ft 369 kts 296°
2026-05-04 16:28 30.16922 33.74064 17926 ft 353 kts 281°
2026-05-04 16:29 30.19176 33.63212 15691 ft 343 kts 281°
2026-05-04 16:30 30.20786 33.55242 14061 ft 339 kts 281°
2026-05-04 16:31 30.21831 33.49969 12970 ft 335 kts 281°
2026-05-04 16:31 30.39396 32.48104 11940 ft 329 kts 281°
2026-05-04 16:32 30.40688 32.40349 10144 ft 320 kts 275°
2026-05-04 16:33 30.40699 32.35198 8059 ft 321 kts 266°
2026-05-04 16:33 30.40129 32.30079 6225 ft 321 kts 260°
2026-05-04 16:34 30.39186 32.25053 4490 ft 322 kts 260°
2026-05-04 16:34 30.38710 32.22516 4009 ft 321 kts 261°
2026-05-04 16:35 30.37446 32.15611 3470 ft 258 kts 262°
2026-05-04 16:35 30.36250 32.09979 2534 ft 237 kts 262°
2026-05-04 16:36 30.35830 32.08111 2517 ft 243 kts 262°
2026-05-04 16:36 30.34862 32.04392 2508 ft 239 kts 257°
2026-05-04 16:37 30.33676 32.00767 2511 ft 241 kts 256°
2026-05-04 16:37 30.33090 31.98951 2513 ft 241 kts 256°
2026-05-04 16:37 30.31918 31.95376 2356 ft 235 kts 257°
2026-05-04 16:38 30.30885 31.91848 2095 ft 227 kts 259°
2026-05-04 16:39 30.29873 31.86672 2089 ft 216 kts 296°
2026-05-04 16:39 30.32152 31.84945 2173 ft 213 kts
2026-05-04 16:40 30.35137 31.85588 3143 ft 228 kts 355°
2026-05-04 16:40 30.37449 31.83406 2521 ft 233 kts 289°
2026-05-04 16:41 30.37467 31.79849 2021 ft 218 kts 263°
2026-05-04 16:41 30.35392 31.75202 2771 ft 233 kts 237°
2026-05-04 16:42 30.31965 31.71025 2671 ft 238 kts 232°
2026-05-04 16:43 30.29659 31.68492 2237 ft 215 kts 232°
2026-05-04 16:43 30.27977 31.66538 2112 ft 199 kts 238°
2026-05-04 16:43 30.26750 31.64924 2200 ft 204 kts 238°
2026-05-04 16:44 30.23615 31.60694 2114 ft 155 kts 245°
2026-05-04 16:45 30.22323 31.58831 2103 ft 150 kts 247°
2026-05-04 16:46 30.20298 31.56187 2116 ft 145 kts 245°
2026-05-04 16:46 30.18969 31.54402 2113 ft 148 kts 246°
2026-05-04 16:47 30.17644 31.52615 2126 ft 146 kts 245°
2026-05-04 16:47 30.16341 31.50764 2000 ft 149 kts 248°
2026-05-04 16:48 30.14388 31.48174 1305 ft 148 kts 233°
2026-05-04 16:48 30.13691 31.47284 1056 ft 151 kts 234°
2026-05-04 16:49 30.12385 31.45477 504 ft 138 kts 231°
2026-05-04 16:49 30.11243 31.43939 378 ft 91 kts 229°
2026-05-04 16:50 30.10822 31.43380 380 ft 32 kts 228°
2026-05-04 16:50 30.10576 31.43032 379 ft 16 kts 239°
2026-05-04 16:51 30.10499 31.42795 379 ft 15 kts 254°
2026-05-04 16:51 30.10476 31.42707 379 ft 0 kts 253°
2026-05-04 16:52 30.10476 31.42705 379 ft 1 kts 253°
2026-05-04 16:53 30.10443 31.42582 379 ft 22 kts 251°
2026-05-04 16:53 30.10103 31.42123 379 ft 23 kts 229°
2026-05-04 16:54 30.09999 31.41984 379 ft 22 kts 229°
2026-05-04 16:55 30.09902 31.41533 379 ft 15 kts 258°
2026-05-04 16:55 30.09862 31.41303 379 ft 15 kts 258°
2026-05-04 16:56 30.09825 31.41073 379 ft 15 kts 259°
2026-05-04 16:56 30.09814 31.40736 379 ft 15 kts 314°
2026-05-04 16:57 30.09890 31.40656 379 ft 15 kts 319°
2026-05-04 16:57 30.10046 31.40499 379 ft 15 kts 319°
2026-05-04 16:58 30.10283 31.40267 379 ft 15 kts 319°
2026-05-04 16:58 30.10361 31.40189 379 ft 15 kts 320°
2026-05-04 16:59 30.10529 31.40178 379 ft 15 kts 44°
2026-05-04 17:00 30.10796 31.40373 379 ft 12 kts 47°
2026-05-04 17:00 30.10947 31.40372 379 ft 11 kts 291°
2026-05-04 17:01 30.11005 31.40216 379 ft 7 kts 332°
2026-05-04 17:01 30.11075 31.40236 379 ft 3 kts 17°